Notices

What's New in latest Release from April 7th, 2021:

- Updated Glossary, including Speed of Maximum Gust, and Total Hourly Precipitation

- Updated national and regional climate services offices contacts and prices information

- Addition of station inventory lists for 1981-2010, 1971-2000, and 1961-1990 Normals.

If you haven't already, please take our survey and provide feedback about our website: https://eccc.sondage-survey.ca/f/LanguageSelection.aspx?s=442ca660-fcf1-47c0-95a9-59707d6fd709

Hourly Data Report for April 07, 2018

MIRAMICHI RCS
NEW BRUNSWICK
Current Station Operator: ECCC - MSC

47°00'34.000" N
65°27'54.000" W
33.00 m
8100989
71744
ACQ

Download Data

Hourly Data (April 2018)
Hourly Data Report for April 7, 2018
TIME
LST
Temp Definition
°C
Dew Point Definition
°C
Rel Hum Definition
%
Precip. Amount Definition
mm

Wind Dir Definition
10's deg

Wind Spd Definition
km/h
Visibility Definition
km
Stn Press Definition
kPa
Hmdx Definition


Wind Chill Definition


Weather Definition


00:00 -1.9 -3.8 87 0.0 17 10   100.35   -6 LegendNANA
01:00 -2.4 -3.3 93 0.0 12 7   100.21   -5 LegendNANA
02:00 -2.3 -3.1 95 0.2 12 8   100.12   -5 LegendNANA
03:00 -2.4 -3.2 94 0.6 9 8   100.01   -6 LegendNANA
04:00 -2.4 -3.2 95 0.2 6 9   99.90   -6 LegendNANA
05:00 -2.4 -3.1 95 0.3 8 13   99.82   -7 LegendNANA
06:00 -2.1 -2.8 95 0.3 5 7   99.77   -5 LegendNANA
07:00 -2.0 -2.7 95 1.2 6 8   99.72   -5 LegendNANA
08:00 -1.7 -2.5 94 0.7 3 7   99.71   -4 LegendNANA
09:00 -1.0 -2.0 92 0.6 5 6   99.65   -3 LegendNANA
10:00 1.6 -0.8 84 0.7 9 2   99.68     LegendNANA
11:00 0.9 -1.6 83 0.0 7 5   99.67     LegendNANA
12:00 0.8 -2.2 81 0.0 19 3   99.69     LegendNANA
13:00 1.1 -1.7 81 0.0 13 6   99.67     LegendNANA
14:00 1.6 -0.9 83 0.0 7 13   99.69     LegendNANA
15:00 0.4 -1.1 89 0.3 6 12   99.80     LegendNANA
16:00 0.0 -1.8 87 0.0 6 12   99.86   -4 LegendNANA
17:00 -0.6 -2.0 90 0.3 7 19   99.93   -6 LegendNANA
18:00 -0.9 -2.1 91 0.2 6 17   100.02   -6 LegendNANA
19:00 -1.3 -2.4 92 0.0 7 9   100.14   -5 LegendNANA
20:00 -1.7 -2.4 95 1.3 8 13   100.27   -6 LegendNANA
21:00 -4.8 -5.5 95 0.2 8 6   100.33   -8 LegendNANA
22:00 -2.8 -3.1 98 0.0 16 9   100.41   -6 LegendNANA
23:00 -2.3 -2.9 96 0.0 20 5   100.41   -4 LegendNANA

Notes on Data Quality.

Legend

  • E = Estimated
  • M = Missing
  • NA = Not Available*
  • [empty] = Indicates an unobserved value
Date modified: